Weather History for Storm Lake, IA

Change the Weather History Date:

Saturday, May 4, 2013

  Actual Average Record
Temperature  
Mean Temperature 37 °F -  
Max Temperature 41 °F 67 °F 86 °F (2000)
Min Temperature 33 °F 46 °F 33 °F (2013)
Degree Days  
Heating Degree Days 28    
Moisture  
Dew Point 37 °F    
Average Humidity 99    
Maximum Humidity 100    
Minimum Humidity 93    
Precipitation  
Precipitation 0.04 in - - ()
Sea Level Pressure  
Sea Level Pressure 30.05 in    
Wind  
Wind Speed 20 mph (NNE)    
Max Wind Speed 28 mph    
Max Gust Speed 34 mph    
Visibility 6 miles    
Events Rain , Snow    
Averages and records for this station are not official NWS values.
T = Trace of Precipitation, MM = Missing Value Source: NWS Daily Summary

Daily Weather History Graph

Daily Weather History Graph

Search for Another Location

Airport:

Trip Planner

Search our weather history database for the weather conditions in past years. The results will help you decide how hot, cold, wet, or windy it might be!

Date:

Astronomy

May. 04, 2013 Rise Set
Actual Time 6:11 AM CDT 8:24 PM CDT
Civil Twilight 5:40 AM CDT 8:56 PM CDT
Nautical Twilight 5:01 AM CDT 9:34 PM CDT
Astronomical Twilight 4:19 AM CDT 10:17 PM CDT
Moon 3:17 AM CDT (5/4) 3:17 PM CDT (5/4)
Length of Visible Light 15h 15m
Length of Day
14h 13m
Waning Crescent, 27% of the Moon is Illuminated
May 4
Waning Crescent
May 9
New
May 17
First Quarter
May 24
Full
May 31
Last Quarter

Hourly Weather History & Observations

Time (CDT) Temp. Windchill Dew Point Humidity Pressure Visibility Wind Dir Wind Speed Gust Speed Precip Events Conditions
12:15 AM 33.8 °F 21.9 °F 32.0 °F 93% 30.04 in 10.0 mi NNE 21.9 mph 27.6 mph N/A   Overcast
12:35 AM 33.8 °F 21.9 °F 32.0 °F 93% 30.04 in 10.0 mi NNE 21.9 mph - N/A   Overcast
12:55 AM 33.8 °F 21.9 °F 32.0 °F 93% 30.03 in 10.0 mi NNE 21.9 mph 29.9 mph N/A   Overcast
1:15 AM 33.8 °F 21.0 °F 32.0 °F 93% 30.01 in 10.0 mi NNE 25.3 mph 31.1 mph N/A   Overcast
1:35 AM 33.8 °F 20.5 °F 32.0 °F 93% 30.00 in 10.0 mi NNE 27.6 mph 34.5 mph N/A   Overcast
1:55 AM 33.8 °F 21.0 °F 32.0 °F 93% 30.00 in 7.0 mi NNE 25.3 mph 31.1 mph N/A   Overcast
2:15 AM 33.8 °F 21.3 °F 32.0 °F 93% 29.99 in 10.0 mi NNE 24.2 mph 31.1 mph N/A   Overcast
2:35 AM 33.8 °F 22.2 °F 32.0 °F 93% 29.99 in 10.0 mi NNE 20.7 mph 27.6 mph N/A   Overcast
2:55 AM 33.8 °F 21.9 °F 32.0 °F 93% 29.99 in 10.0 mi NNE 21.9 mph 28.8 mph N/A   Overcast
3:15 AM 33.8 °F 21.6 °F 32.0 °F 93% 29.99 in 10.0 mi NNE 23.0 mph 31.1 mph N/A   Overcast
3:35 AM 33.8 °F 21.6 °F 32.0 °F 93% 30.00 in 10.0 mi NNE 23.0 mph - N/A   Overcast
3:55 AM 33.8 °F 21.9 °F 32.0 °F 93% 29.99 in 10.0 mi NNE 21.9 mph 28.8 mph N/A   Overcast
4:15 AM 33.8 °F 21.3 °F 32.0 °F 93% 29.99 in 8.0 mi North 24.2 mph - N/A   Overcast
4:35 AM 33.8 °F 21.6 °F 32.0 °F 93% 29.98 in 6.0 mi NNE 23.0 mph - N/A   Overcast
4:55 AM 33.8 °F 21.3 °F 33.8 °F 100% 29.99 in 7.0 mi NNE 24.2 mph - N/A   Overcast
5:15 AM 33.8 °F 21.6 °F 33.8 °F 100% 29.98 in 8.0 mi NNE 23.0 mph 29.9 mph N/A   Overcast
5:35 AM 33.8 °F 21.3 °F 33.8 °F 100% 29.98 in 2.5 mi North 24.2 mph 31.1 mph N/A Snow Light Snow
5:55 AM 33.8 °F 22.2 °F 33.8 °F 100% 29.99 in 2.5 mi NNE 20.7 mph 29.9 mph N/A Snow Light Snow
6:15 AM 33.8 °F 22.2 °F 33.8 °F 100% 29.98 in 2.0 mi North 20.7 mph 27.6 mph N/A Snow Light Snow
6:35 AM 33.8 °F 22.8 °F 33.8 °F 100% 29.99 in 2.0 mi NNE 18.4 mph 26.5 mph N/A Snow Light Snow
6:55 AM 33.8 °F 21.6 °F 33.8 °F 100% 29.99 in 1.5 mi NNE 23.0 mph 31.1 mph N/A Snow Light Snow
7:15 AM 33.8 °F 21.6 °F 33.8 °F 100% 30.00 in 2.0 mi NNE 23.0 mph - N/A Snow Light Snow
7:35 AM 33.8 °F 21.6 °F 33.8 °F 100% 30.01 in 0.8 mi NNE 23.0 mph 29.9 mph N/A Snow Light Snow
7:55 AM 33.8 °F 22.2 °F 33.8 °F 100% 30.01 in 0.8 mi NNE 20.7 mph 27.6 mph 0.01 in Snow Light Snow
8:15 AM 33.8 °F 21.6 °F 33.8 °F 100% 30.00 in 1.0 mi NNE 23.0 mph 31.1 mph N/A Snow Light Snow
8:35 AM 33.8 °F 21.0 °F 33.8 °F 100% 30.01 in 1.2 mi NNE 25.3 mph - N/A Snow Light Snow
8:55 AM 33.8 °F 21.3 °F 33.8 °F 100% 30.01 in 1.8 mi NNE 24.2 mph - N/A Snow Light Snow
9:15 AM 35.6 °F 24.2 °F 35.6 °F 100% 30.02 in 3.0 mi NNE 21.9 mph - N/A Snow Light Snow
9:35 AM 35.6 °F 24.5 °F 35.6 °F 100% 30.02 in 3.0 mi NNE 20.7 mph 27.6 mph N/A Snow Light Snow
9:55 AM 35.6 °F 24.8 °F 35.6 °F 100% 30.02 in 2.5 mi NNE 19.6 mph 26.5 mph N/A Snow Light Snow
10:15 AM 35.6 °F 24.5 °F 35.6 °F 100% 30.03 in 1.0 mi NNE 20.7 mph - N/A Snow Light Snow
10:35 AM 35.6 °F 25.5 °F 35.6 °F 100% 30.04 in 1.2 mi NNE 17.3 mph 23.0 mph N/A Snow Light Snow
10:55 AM 35.6 °F 24.8 °F 35.6 °F 100% 30.04 in 7.0 mi NNE 19.6 mph - 0.01 in   Overcast
11:15 AM 35.6 °F 25.2 °F 35.6 °F 100% 30.05 in 1.8 mi NNE 18.4 mph 24.2 mph N/A Snow Light Snow
11:35 AM 35.6 °F 25.5 °F 35.6 °F 100% 30.06 in 2.0 mi NNE 17.3 mph - N/A Snow Light Snow
11:55 AM 35.6 °F 24.5 °F 35.6 °F 100% 30.06 in 2.5 mi NNE 20.7 mph - 0.02 in Snow Light Snow
12:15 PM 35.6 °F 24.8 °F 35.6 °F 100% 30.06 in 0.8 mi NNE 19.6 mph - N/A Snow Light Snow
12:35 PM 37.4 °F 28.9 °F 37.4 °F 100% 30.06 in 1.8 mi NNE 13.8 mph 20.7 mph N/A   Overcast
12:55 PM 37.4 °F 26.6 °F 37.4 °F 100% 30.05 in 9.0 mi NNE 21.9 mph - N/A Snow Light Snow
1:15 PM 37.4 °F 27.5 °F 37.4 °F 100% 30.06 in 9.0 mi NNE 18.4 mph 24.2 mph N/A   Overcast
1:35 PM 37.4 °F 27.5 °F 37.4 °F 100% 30.05 in 5.0 mi North 18.4 mph - N/A   Overcast
1:55 PM 39.2 °F 30.5 °F 39.2 °F 100% 30.06 in 10.0 mi NNE 16.1 mph 24.2 mph N/A Rain Light Rain
2:15 PM 39.2 °F 30.5 °F 39.2 °F 100% 30.06 in 10.0 mi NNE 16.1 mph - N/A Rain Light Rain
2:35 PM 39.2 °F 30.5 °F 39.2 °F 100% 30.07 in 8.0 mi NNE 16.1 mph - N/A Rain Light Rain
2:55 PM 39.2 °F 30.5 °F 39.2 °F 100% 30.07 in 10.0 mi NNE 16.1 mph - N/A   Overcast
3:15 PM 39.2 °F 30.8 °F 39.2 °F 100% 30.07 in 10.0 mi NNE 15.0 mph 23.0 mph N/A   Overcast
3:35 PM 39.2 °F 31.2 °F 39.2 °F 100% 30.07 in 10.0 mi NNE 13.8 mph 19.6 mph N/A   Overcast
3:55 PM 39.2 °F 30.8 °F 39.2 °F 100% 30.07 in 7.0 mi North 15.0 mph - N/A   Overcast
4:15 PM 41.0 °F 33.5 °F 41.0 °F 100% 30.07 in 7.0 mi NNE 13.8 mph 19.6 mph N/A Rain Light Rain
4:35 PM 41.0 °F 33.9 °F 41.0 °F 100% 30.07 in 9.0 mi North 12.7 mph - N/A   Overcast
4:55 PM 41.0 °F 33.9 °F 41.0 °F 100% 30.07 in 10.0 mi North 12.7 mph - N/A   Overcast
5:15 PM 41.0 °F 33.9 °F 41.0 °F 100% 30.08 in 6.0 mi North 12.7 mph - N/A   Overcast
5:35 PM 41.0 °F 33.9 °F 41.0 °F 100% 30.08 in 7.0 mi North 12.7 mph - N/A   Light Drizzle
5:55 PM 41.0 °F 33.5 °F 41.0 °F 100% 30.09 in 9.0 mi North 13.8 mph - N/A Rain Light Rain
6:15 PM 41.0 °F 33.5 °F 41.0 °F 100% 30.09 in 4.0 mi North 13.8 mph - N/A   Overcast
6:35 PM 41.0 °F 33.5 °F 41.0 °F 100% 30.08 in 3.0 mi North 13.8 mph - N/A   Overcast
6:55 PM 41.0 °F 33.9 °F 41.0 °F 100% 30.09 in 5.0 mi North 12.7 mph - N/A   Light Drizzle
7:15 PM 41.0 °F 33.5 °F 41.0 °F 100% 30.09 in 9.0 mi North 13.8 mph - N/A   Overcast
7:35 PM 41.0 °F 34.3 °F 41.0 °F 100% 30.09 in 8.0 mi North 11.5 mph - N/A   Overcast
7:55 PM 41.0 °F 33.9 °F 41.0 °F 100% 30.10 in 6.0 mi North 12.7 mph - N/A   Overcast
8:15 PM 41.0 °F 33.9 °F 41.0 °F 100% 30.11 in 5.0 mi North 12.7 mph - N/A   Overcast
8:35 PM 41.0 °F 33.5 °F 41.0 °F 100% 30.11 in 4.0 mi North 13.8 mph - N/A   Light Drizzle
8:55 PM 41.0 °F 33.9 °F 41.0 °F 100% 30.12 in 3.0 mi NNE 12.7 mph - N/A   Light Drizzle
9:15 PM 41.0 °F 33.9 °F 41.0 °F 100% 30.12 in 2.5 mi North 12.7 mph - N/A   Light Drizzle
9:35 PM 41.0 °F 33.5 °F 41.0 °F 100% 30.12 in 2.0 mi NNE 13.8 mph - N/A Rain Light Rain
9:55 PM 41.0 °F 33.1 °F 41.0 °F 100% 30.12 in 2.0 mi North 15.0 mph - N/A   Overcast
10:15 PM 41.0 °F 32.8 °F 41.0 °F 100% 30.12 in 4.0 mi NNE 16.1 mph - N/A   Overcast
10:35 PM 41.0 °F 33.1 °F 41.0 °F 100% 30.13 in 3.0 mi NNE 15.0 mph - N/A   Overcast
10:55 PM 41.0 °F 33.1 °F 41.0 °F 100% 30.12 in 2.5 mi NNE 15.0 mph - N/A   Overcast
11:15 PM 41.0 °F 33.1 °F 41.0 °F 100% 30.12 in 1.5 mi NNE 15.0 mph - N/A   Overcast
11:35 PM 41.0 °F 33.5 °F 41.0 °F 100% 30.12 in 1.8 mi NNE 13.8 mph 21.9 mph N/A   Overcast
11:55 PM 39.2 °F 30.8 °F 39.2 °F 100% 30.12 in 1.5 mi NNE 15.0 mph 20.7 mph N/A   Overcast